SCP
0 0 0 0 0 0 0 0 0 0 0 0 0 0 0 0 0 0 0 0 0 0 0 0 0 0 0 0 0 0 0 0 0 0 0 0 0 0 0 0 0 0 0
0 0 0 0 0 0 0 0 0 0 0 0 0 0 0 0 0 0 0 0 0 0 0 0 0 0 0 0 0 0 0 0 0 0 0 0 0 0 0 0 0 0 0
0 0 0 0 0 0 0 0 0 0 0 0 0 0 0 0 0 0 0 0 0 0 0 0 0 0 0 0 0 0 0 0 0 0 0 0 0 0 0 0 0 0 0
0 0 0 0 0 0 0 0 0 0 0 0 0 0 0 0 0 0 0 0 0 0 0 0 0 0 0 0 0 0 0 0 0 0 0 0 0 0 0 0 0 0 0
0 0 0 0 0 0 0 0 0 0 0 0 0 0 0 0 0 0 0 0 0 0 0 0 0 0 0 0 0 0 0 0 0 0 0 0 0 0 0 0 0 0 0
-0 0 0 0 0 0 0 0 0 0 0 0 0 0 0 0 0 0 0 0 0 0 0 0 0 0 0 0 0 0 0 0 0 0 0 0 0 0 0 0 0 0 0
0 0 0 0 0 0 0 0 0 0 0 0 0 0 0 0 0 0 0 0 0 0 0 0 0 0 0 0 0 0 0 0 0 0 0 0 0 0 0 0 0 0 0
0 0 0 0 0 0 0 0 0 0 0 0 0 0 0 0 0 0 0 0 0 0 0 0 0 0 0 0 0 0 0 0 0 0 0 0 0 0 0 0 0 0 0
-0 0 0 0 0 0 0 0 0 0 0 0 0 0 0 0 0 0 0 0 0 0 0 0 0 0 0 0 0 0 0 0 0 0 0 0 0 0 0 0 0 0 0
0 0 0 0 0 0 0 0 0 0 0 0 0 0 0 0 0 0 0 0 0 0 0 0 0 0 0 0 0 0 0 0 0 0 0 0 0 0 0 0 0 0 0
0 0 0 0 0 0 0 0 0 0 0 0 0 0 0 0 0 0 0 0 0 0 0 0 0 0 0 0 0 0 0 0 0 0 0 0 0 0 0 0 0 0 0
0 0 0 0 0 0 0 0 0 0 0 0 0 0 0 0 0 0 0 0 0 0 0 0 0 0 0 0 0 0 0 0 0 0 0 0 0 0 0 0 0 0 0
0 0 0 0 0 0 0 0 0 0 0 0 0 0 0 0 0 0 0 0 0 0 0 0 0 0 0 0 0 0 0 0 0 0 0 0 0 0 0 0 0 0 0
0 0 0 0 0 0 0 0 0 0 0 0 0 0 0 0 0 0 0 0 0 0 0 0 0 0 0 0 0 0 0 0 0 0 0 0 0 0 0 0 0 0 0
0 0 0 0 0 0 0 0 0 0 0 0 0 0 0 0 0 0 0 0 0 0 0 0 0 0 0 0 0 0 0 0 0 0 0 0 0 0 0 0 0 0 0
0 0 0 0 0 0 0 0 0 0 0 0 0 0 0 0 0 0 0 0 0 0 0 0 0 0 0 0 0 0 0 0 0 0 0 0 0 0 0 0 0 0 0
0 0 0 0 0 0 0 0 0 0 0 0 0 0 0 0 0 0 0 0 0 0 0 0 0 0 0 0 0 0 0 0 0 0 0 0 0 0 0 0 0 0 0
0 0 0 0 0 0 0 0 0 0 0 0 0 0 0 0 0 0 0 0 0 0 0 0 0 0 0 0 0 0 0 0 0 0 0 0 0 0 0 0 0 0 0
0 0 0 0 0 0 0 0 0 0 0 0 0 0 0 0 0 0 0 0 0 0 0 0 0 0 0 0 0 0 0 0 0 0 0 0 0 0 0 0 0 0 0
0 0 0 0 0 0 0 0 0 0 0 0 0 0 0 0 0 0 0 0 0 0 0 0 0 0 0 0 0 0 0 0 0 0 0 0 0 0 0 0 0 0 0
0 0 0 0 0 0 0 0 0 0 0 0 0 0 0 0 0 0 0 0 0 0 0 0 0 0 0 0 0 0 0 0 0 0 0 0 0 0 0 0 0 0 0
0 0 0 0 0 0 0 0 0 0 0 0 0 0 0 0 0 0 0 0 0 0 0 0 0 0 0 0 0 0 0 0 0 0 0 0 0 0 0 0 0 0 0
0 0 0 0 0 0 0 0 0 0 0 0 0 0 0 0 0 0 0 0 0 0 0 0 0 0 0 0 0 0 0 0 0 0 0 0 0 0 0 0 0 0 0
0 0 0 0 0 0 0 0 0 0 0 0 0 0 0 0 0 0 0 0 0 0 0 0 0 0 0 0 0 0 0 0 0 0 0 0 0 0 0 0 0 0 0
0 0 0 0 0 0 0 0 0 0 0 0 0 0 0 0 0 0 0 0 0 0 0 0 0 0 0 0 0 0 0 0 0 0 0 0 0 0 0 0 0 0 0
0 0 0 0 0 0 0 0 0 0 0 0 0 0 0 0 0 0 0 0 0 0 0 0 0 0 0 0 0 0 0 0 0 0 0 0 0 0 0 0 0 0 0
Wind_Speed
2 2 2 2 2 2 3 3 4 2 2 2 1 1 0 1 1 1 2 1 1 1 2 2 2 2 3 3 3 3 4 4 3 2 3 4 6 7 7 7 7 8 9
2 2 2 1 1 1 2 2 2 1 1 1 1 1 1 1 1 1 2 1 1 1 2 3 3 3 2 3 3 2 2 2 2 2 2 3 3 4 7 6 7 8 7
1 2 2 1 0 0 1 1 1 1 1 1 1 1 1 1 1 2 2 2 2 2 2 2 2 3 3 3 3 3 4 3 2 3 3 3 3 3 3 5 6 6 6
2 3 2 2 1 1 0 1 0 1 0 1 1 1 1 1 2 1 2 3 3 3 2 2 2 2 3 3 4 4 3 3 3 2 3 3 3 2 3 2 3 5 7
2 2 1 1 1 0 1 0 1 1 1 0 1 1 1 1 2 2 3 3 3 3 3 2 2 2 3 3 4 3 4 4 3 3 2 3 3 4 3 4 3 2 3
1 1 1 1 1 2 2 1 1 1 2 1 1 0 1 2 2 3 3 3 3 3 3 3 2 3 3 3 4 4 5 5 4 4 3 3 2 2 3 4 3 3 3
1 1 1 1 2 2 2 2 2 2 3 3 2 2 2 2 3 3 3 3 3 3 4 3 3 3 4 4 4 4 5 5 5 5 4 4 4 3 2 3 3 3 2
1 1 1 1 2 2 2 2 2 3 3 3 3 2 2 2 2 3 3 4 3 4 5 4 5 5 5 5 4 4 5 5 6 6 6 4 4 4 3 3 2 3 2
1 1 1 2 2 3 3 2 2 2 3 3 3 3 3 3 4 4 4 4 4 5 5 5 5 5 5 5 4 4 6 5 6 6 6 5 4 4 4 3 3 3 3
1 2 2 2 2 2 2 2 2 2 3 3 3 3 4 4 4 4 5 5 5 5 6 6 6 6 6 5 5 5 5 6 6 5 6 6 4 4 4 4 4 4 4
1 1 1 2 2 2 2 3 3 3 4 4 4 4 5 5 5 4 5 5 5 5 6 6 6 6 7 6 5 6 6 7 7 6 7 7 6 5 4 4 3 4 4
0 1 2 2 3 3 3 4 4 4 4 4 4 5 5 5 5 6 6 6 6 6 6 6 6 7 7 6 6 8 7 7 8 8 7 8 6 7 5 4 4 4 4
1 1 2 3 3 4 5 5 5 5 5 5 5 6 6 6 6 7 7 6 6 7 7 6 7 7 7 7 7 8 8 8 9 8 8 9 8 8 6 6 5 4 4
2 2 3 4 4 5 5 5 6 5 5 5 5 6 7 7 7 7 7 7 7 7 7 7 7 8 8 8 8 8 8 8 9 8 9 9 9 9 8 7 6 5 4
3 4 4 4 5 5 5 5 6 6 5 6 6 7 7 7 7 7 7 7 7 8 7 8 8 8 7 7 8 7 8 8 9 8 8 9 11 12 9 7 7 6 5
5 5 5 5 5 6 6 6 6 6 5 6 7 7 7 7 7 8 8 8 8 7 7 8 8 8 8 9 11 9 8 8 9 9 8 9 11 12 13 12 11 10 8
5 5 5 5 6 6 5 6 6 6 6 7 7 8 7 8 8 9 8 8 8 7 8 8 8 9 10 12 12 12 8 8 8 9 8 7 7 9 8 9 11 12 12
5 5 5 5 5 4 5 5 6 6 6 7 8 8 8 8 8 8 8 8 7 7 7 8 9 8 10 11 11 12 8 7 8 9 9 8 7 7 8 8 8 8 9
5 4 5 4 4 6 5 5 6 6 7 7 8 8 8 9 9 9 9 8 7 8 8 8 8 8 10 11 11 9 5 6 8 8 9 9 8 9 10 8 8 7 6
4 4 4 3 5 5 4 5 6 6 7 8 8 8 8 8 9 9 8 7 7 8 8 8 8 8 9 10 10 8 4 5 6 6 7 10 10 9 11 8 8 8 6
4 4 4 4 5 5 4 5 6 7 7 8 8 8 8 8 8 7 6 7 7 8 8 8 8 7 8 9 9 8 4 5 5 4 4 5 9 11 11 10 8 8 7
4 4 3 5 5 4 3 5 6 7 7 7 8 8 8 7 7 7 7 7 7 7 7 7 8 6 5 6 7 7 7 6 5 5 4 4 8 10 10 8 7 9 8
5 3 4 5 5 4 3 5 6 6 7 7 8 8 9 7 6 6 7 7 6 5 6 5 6 6 5 5 6 7 7 6 4 4 6 6 7 8 7 9 9 8 6
5 3 3 4 5 5 4 5 6 6 6 7 8 7 8 8 7 5 5 5 6 6 6 6 6 6 5 4 4 3 3 3 3 3 2 3 5 4 5 6 6 5 6
4 4 4 5 6 5 5 5 5 5 6 7 7 7 7 7 7 7 5 6 6 5 6 5 5 6 6 6 6 4 3 2 2 1 1 1 2 3 3 3 4 4 5
4 4 5 5 6 5 6 5 5 4 5 6 7 6 6 6 6 6 7 6 6 8 8 8 7 6 8 10 8 6 5 4 3 2 2 2 3 3 4 4 4 4 5
Wind_Direction
6 18 23 55 79 78 82 84 94 89 96 100 109 117 280 287 289 284 291 289 260 240 225 231 230 219 223 233 226 220 229 233 214 231 263 258 241 236 235 231 229 228 225
348 354 323 355 43 76 86 87 96 106 110 128 137 156 177 253 254 300 319 296 275 251 233 226 234 227 221 234 235 214 223 234 196 197 239 280 278 246 234 227 226 229 224
246 267 279 289 350 49 168 138 146 140 130 123 97 72 44 1 347 332 325 325 314 281 270 246 233 229 217 223 222 209 210 229 233 211 209 226 252 287 262 232 229 225 219
254 251 256 277 276 272 249 145 122 62 21 100 121 142 165 251 263 279 296 311 315 311 298 272 245 233 227 230 229 208 203 205 225 230 231 233 233 251 288 282 246 233 226
264 262 249 253 294 344 53 51 75 15 347 52 139 144 241 258 285 302 306 307 309 307 303 286 260 246 238 238 234 214 207 204 208 210 212 230 239 235 245 272 276 264 241
341 357 10 43 23 34 50 52 60 353 347 0 0 262 267 283 298 300 300 300 298 294 294 289 272 260 251 244 237 226 218 215 216 216 211 208 213 223 233 252 266 270 269
69 65 47 38 30 33 29 33 39 357 352 357 350 327 293 282 277 281 281 287 290 287 282 280 268 261 255 251 239 230 229 221 218 217 217 217 221 216 228 246 260 267 276
103 101 73 57 39 32 24 23 18 352 350 350 333 320 308 287 277 276 273 271 266 270 275 274 266 262 259 258 244 238 236 227 225 227 220 220 226 220 217 223 233 263 267
84 88 66 46 26 18 15 13 10 351 341 338 332 326 326 313 299 296 286 278 273 277 279 277 272 269 264 258 249 243 242 231 228 229 226 227 229 223 222 221 217 223 252
71 58 33 16 5 1 357 1 358 329 320 326 325 328 320 314 305 301 295 288 284 282 285 280 273 271 268 260 250 251 251 240 235 228 227 229 229 225 222 220 223 219 228
119 2 339 344 344 345 345 341 335 328 322 322 319 318 311 309 308 298 291 288 285 286 283 279 275 270 266 261 252 251 251 245 244 238 229 231 224 221 222 218 218 221 218
177 293 321 338 339 331 326 325 323 321 315 314 313 308 305 306 305 298 294 293 290 289 285 283 280 274 268 260 254 256 254 246 244 240 233 235 228 222 220 214 218 221 221
238 314 326 324 317 316 319 318 319 315 313 315 316 312 310 307 302 298 296 294 290 290 289 285 280 277 273 266 258 254 254 249 244 239 232 232 224 223 219 216 217 219 223
277 294 301 305 308 312 313 313 312 310 313 317 314 308 303 300 297 295 295 293 291 289 288 286 280 275 273 269 263 256 254 253 249 241 235 232 224 221 217 216 215 211 212
280 288 293 297 305 311 311 310 307 308 312 313 307 300 299 300 299 298 297 296 293 292 289 289 285 280 273 263 258 254 254 250 250 246 238 234 230 225 216 213 207 202 201
275 286 294 298 299 301 303 307 305 305 309 305 300 300 303 304 302 301 299 297 295 292 292 289 286 284 279 277 272 266 259 252 248 247 241 237 237 233 224 218 208 199 195
268 276 283 284 286 288 292 296 297 304 307 302 301 303 303 303 302 304 305 299 295 293 293 290 287 283 280 278 277 274 264 251 245 241 237 237 230 220 220 219 216 210 205
262 271 275 281 284 284 290 293 299 304 304 304 305 306 305 305 304 303 301 298 295 294 291 289 288 285 284 282 280 278 268 254 246 239 234 231 232 221 210 212 214 212 210
242 249 257 264 277 286 291 302 304 307 307 306 306 307 307 307 307 305 301 298 297 297 293 290 289 285 284 283 282 278 264 255 253 245 236 228 227 221 205 204 208 210 214
242 251 267 274 280 284 294 299 301 307 305 304 304 305 304 302 301 298 296 293 293 292 295 293 289 283 282 283 282 278 254 253 255 250 240 227 223 220 203 202 202 205 203
241 251 262 268 271 283 294 293 299 298 296 301 304 305 303 300 294 292 291 296 298 299 298 297 294 288 282 285 283 273 247 245 249 248 242 228 213 213 205 199 206 207 189
248 250 253 270 279 286 284 290 293 291 301 305 307 308 306 304 306 302 303 303 302 304 305 305 305 299 291 285 288 276 256 240 240 244 241 228 210 209 205 198 203 192 172
241 243 242 269 286 283 267 279 285 299 307 310 310 309 310 307 303 303 307 310 307 303 304 307 306 306 304 298 292 289 276 254 242 247 243 231 214 205 202 204 191 178 173
237 235 240 264 280 283 276 267 283 299 306 309 310 311 313 314 314 309 302 302 304 306 308 309 308 307 306 308 310 303 285 263 253 252 251 217 194 186 176 178 184 183 182
230 226 234 252 267 280 284 284 290 302 308 309 309 312 311 310 314 313 300 295 284 276 283 293 292 299 304 303 302 295 287 268 243 214 181 157 157 167 161 161 168 174 177
222 230 241 250 265 277 283 289 292 296 303 309 312 313 312 313 313 315 316 300 283 293 282 268 269 275 274 290 300 295 286 272 217 179 185 187 184 185 178 169 166 177 184